Temperature
7 6 6 6 6 7 7 7 7 7 7 7 7 7 6 6 6 6 6 6 6 6 6 5 5 5 5 5 4 4 4 4 3 3 3 3 3 3 3 3 3 3 3
6 6 6 6 6 6 6 6 6 6 6 6 6 6 6 6 6 6 5 5 5 5 5 5 5 5 4 4 4 4 3 3 3 3 3 3 3 3 2 3 3 2 2
6 6 6 6 6 6 6 6 6 6 6 6 6 6 6 6 6 5 5 5 5 5 4 4 4 4 4 3 3 3 3 3 2 2 2 2 2 2 2 2 2 2 2
5 5 5 5 5 5 5 5 5 5 5 5 5 5 5 5 5 5 5 4 4 4 4 4 3 3 3 3 3 3 2 2 2 2 2 2 1 1 1 1 2 2 1
5 5 5 5 5 5 5 5 5 5 5 5 5 5 4 4 4 4 4 4 3 3 3 3 3 3 3 3 2 2 2 2 1 1 1 1 1 1 1 1 1 1 1
4 4 4 4 4 4 4 5 5 5 4 4 4 4 4 4 3 3 3 3 3 3 3 3 2 2 2 2 2 2 1 1 1 1 1 1 0 0 0 -0 -0 -0 -0
3 4 4 4 4 4 4 4 4 4 4 4 4 3 3 3 3 3 2 2 2 2 2 2 2 2 2 2 1 1 1 1 1 0 0 0 -0 0 -0 -0 -0 -1 -1
3 3 3 3 3 3 3 3 3 3 3 3 3 3 3 2 2 2 2 2 2 2 2 1 1 1 1 1 1 1 1 0 0 -0 -0 -0 -0 -0 -1 -1 -1 -1 -1
3 3 3 3 3 3 3 3 3 3 3 2 2 2 2 2 2 2 1 1 1 1 1 1 1 1 0 0 0 0 0 0 -0 -0 -0 -0 -1 -1 -1 -1 -1 -2 -2
2 2 2 2 2 2 2 2 2 2 2 2 2 1 1 1 1 1 1 1 1 1 1 0 0 0 -0 -0 -0 -0 -0 -0 -0 -0 -0 -1 -1 -1 -1 -1 -2 -2 -2
2 2 2 2 2 2 2 2 2 1 1 1 1 1 1 1 1 1 0 0 0 0 -0 -0 -0 -1 -1 -1 -1 -1 -1 -1 -1 -1 -1 -1 -1 -1 -1 -2 -2 -2 -3
1 1 1 1 1 1 1 1 1 1 1 0 0 0 0 0 0 -0 -0 -0 -1 -1 -1 -1 -1 -1 -1 -1 -1 -1 -1 -1 -1 -1 -1 -1 -2 -2 -2 -2 -2 -2 -3
1 1 1 1 1 1 1 0 0 0 0 -0 -0 -0 -1 -1 -1 -1 -1 -1 -1 -1 -1 -1 -2 -2 -1 -1 -1 -1 -1 -1 -2 -2 -2 -2 -2 -2 -2 -2 -3 -3 -3
0 0 0 0 0 0 0 -0 -0 -0 -0 -0 -1 -1 -1 -1 -1 -1 -1 -2 -2 -2 -2 -2 -2 -2 -2 -2 -2 -1 -2 -2 -2 -2 -2 -2 -2 -3 -3 -3 -3 -3 -3
-0 -0 -0 -0 -0 -1 -1 -1 -1 -1 -1 -1 -1 -1 -1 -1 -2 -2 -2 -2 -2 -2 -3 -2 -2 -2 -2 -2 -2 -2 -2 -2 -2 -2 -2 -3 -3 -3 -3 -3 -3 -4 -4
-1 -1 -1 -1 -1 -1 -1 -1 -1 -1 -1 -1 -2 -2 -2 -2 -2 -2 -2 -2 -3 -3 -3 -3 -3 -3 -3 -2 -2 -3 -3 -3 -3 -3 -3 -3 -3 -3 -4 -4 -4 -4 -4
-1 -1 -2 -2 -2 -2 -2 -2 -2 -2 -2 -2 -2 -2 -2 -2 -2 -3 -3 -3 -3 -3 -3 -3 -3 -3 -3 -3 -3 -3 -3 -3 -3 -3 -3 -3 -4 -4 -4 -4 -4 -4 -5
-2 -2 -2 -2 -2 -2 -2 -2 -2 -2 -2 -3 -3 -3 -3 -3 -3 -3 -3 -3 -4 -4 -3 -3 -3 -3 -3 -3 -3 -3 -3 -3 -3 -4 -4 -4 -4 -4 -4 -5 -5 -5 -5
-3 -3 -3 -3 -3 -3 -3 -3 -3 -3 -3 -3 -3 -3 -3 -3 -3 -3 -4 -4 -4 -4 -4 -4 -4 -3 -3 -3 -3 -4 -4 -4 -4 -4 -4 -4 -4 -4 -5 -5 -5 -5 -5
-3 -3 -3 -3 -4 -4 -4 -4 -4 -4 -4 -4 -4 -4 -4 -4 -4 -4 -4 -4 -4 -4 -4 -4 -4 -4 -4 -4 -4 -4 -4 -4 -4 -4 -4 -4 -5 -5 -5 -5 -5 -5 -5
-4 -4 -4 -4 -4 -4 -4 -4 -4 -4 -4 -4 -4 -4 -4 -4 -4 -4 -4 -4 -4 -4 -4 -4 -4 -4 -4 -4 -4 -4 -4 -4 -4 -4 -4 -4 -5 -5 -5 -5 -5 -5 -6
-4 -4 -4 -4 -4 -4 -5 -4 -5 -5 -5 -5 -5 -5 -5 -5 -5 -5 -5 -5 -4 -5 -4 -4 -4 -4 -4 -4 -4 -4 -4 -4 -4 -4 -4 -5 -5 -5 -5 -5 -5 -6 -6
-4 -4 -4 -4 -5 -5 -5 -5 -5 -5 -5 -5 -5 -5 -5 -5 -5 -5 -5 -5 -5 -5 -5 -5 -5 -4 -4 -4 -4 -4 -4 -4 -5 -4 -5 -5 -5 -5 -5 -6 -6 -6 -6
-5 -5 -5 -5 -5 -5 -5 -5 -5 -5 -5 -5 -5 -5 -5 -5 -5 -5 -5 -5 -5 -5 -5 -5 -5 -5 -5 -5 -4 -4 -5 -5 -5 -5 -5 -5 -5 -5 -6 -6 -6 -6 -6
-5 -5 -5 -6 -6 -6 -6 -6 -6 -6 -6 -6 -6 -6 -6 -6 -5 -5 -5 -5 -5 -5 -5 -5 -5 -5 -5 -5 -5 -5 -5 -5 -5 -5 -5 -5 -5 -6 -6 -6 -6 -6 -6
-6 -6 -6 -6 -6 -6 -6 -6 -6 -6 -6 -6 -6 -6 -6 -6 -6 -6 -5 -5 -5 -5 -5 -5 -5 -5 -5 -5 -5 -5 -5 -5 -5 -5 -5 -5 -5 -6 -6 -6 -6 -6 -6
Wind_Speed
4 4 3 4 4 5 4 5 5 4 5 5 5 4 3 3 3 3 3 4 3 3 3 3 3 2 1 1 1 2 2 2 5 5 4 4 4 4 7 8 9 8 9
4 4 4 4 4 4 4 4 4 4 4 5 5 5 4 3 3 4 4 4 4 3 3 2 2 2 2 2 2 3 3 3 4 6 5 4 5 5 5 6 8 8 8
3 3 3 4 4 4 4 4 4 5 5 5 5 5 4 4 4 4 4 3 3 3 2 2 2 2 2 2 2 3 3 3 3 4 5 4 4 4 4 5 6 6 8
2 3 4 4 4 4 4 4 4 4 4 4 4 4 4 4 4 4 3 3 3 3 2 2 2 2 3 3 2 2 3 3 3 4 4 4 4 4 3 4 6 4 6
2 2 3 3 3 4 4 4 4 4 4 4 4 3 3 3 3 3 3 3 3 2 2 2 2 2 3 3 3 3 3 3 3 4 4 4 4 4 4 4 6 6 5
2 2 2 3 3 4 4 4 4 3 4 4 4 3 3 2 3 4 3 3 3 3 2 2 2 3 3 4 5 5 4 4 4 4 5 5 6 5 4 4 5 5 5
1 1 2 3 3 4 4 4 4 4 3 4 4 4 3 3 4 4 3 2 3 3 3 2 2 2 2 2 3 5 5 6 7 6 6 6 6 5 5 5 5 5 6
1 1 1 2 3 3 4 3 3 3 3 3 3 3 3 3 4 4 3 2 2 2 2 3 2 3 3 2 2 3 4 5 6 4 4 6 5 5 5 5 5 5 5
1 1 1 2 3 3 3 3 3 3 3 3 3 3 3 3 4 3 2 2 2 2 2 2 2 2 4 3 2 3 4 5 5 5 6 6 6 6 5 3 3 4 5
1 1 1 2 3 3 4 3 3 3 3 3 2 2 3 3 4 3 2 2 1 1 1 1 3 3 4 4 3 3 4 4 3 4 4 4 4 4 5 3 2 2 4
1 0 1 2 2 3 3 3 3 3 3 2 2 1 2 3 3 3 2 2 1 1 1 1 2 4 5 5 4 3 5 4 2 2 2 2 2 3 4 4 3 2 3
1 1 1 1 2 2 3 3 3 4 3 3 2 1 1 1 2 2 2 1 1 1 1 1 2 5 6 5 4 4 4 3 1 1 2 2 2 2 3 4 5 5 4
1 1 1 1 2 2 3 3 3 3 3 2 2 2 1 0 1 1 1 1 1 1 1 2 4 5 5 3 3 4 2 1 1 1 2 2 2 2 3 3 4 5 5
1 1 1 2 1 1 1 2 3 3 3 2 2 2 1 1 1 1 1 0 0 1 1 1 3 4 3 2 3 3 1 0 0 0 1 1 1 2 2 2 3 3 3
0 1 1 1 1 1 1 1 1 2 3 3 3 3 3 2 2 2 1 1 0 1 1 1 1 1 1 2 2 2 2 2 1 1 1 1 1 2 2 3 2 3 2
0 0 1 1 1 1 1 1 1 0 1 1 2 2 2 2 3 2 2 1 1 1 1 1 1 1 1 1 1 1 2 2 1 1 0 1 1 1 2 2 2 2 2
0 0 1 1 1 1 1 1 1 1 1 1 1 1 2 2 2 2 1 1 1 1 1 1 1 1 0 1 1 1 1 1 1 1 0 0 1 1 2 2 2 3 3
1 1 1 1 1 1 1 1 1 1 1 1 1 1 2 2 2 2 2 1 0 0 0 1 1 0 0 0 0 1 1 1 1 1 1 1 0 1 1 2 2 2 3
1 1 1 0 0 0 0 0 1 1 1 1 1 1 1 1 2 2 1 1 1 0 0 0 0 0 0 0 0 0 0 0 1 1 1 1 0 0 1 1 1 3 3
1 0 0 0 1 1 1 1 1 1 1 1 1 1 1 1 1 1 1 1 1 0 0 1 1 1 1 1 0 1 0 0 0 0 0 0 0 0 0 1 1 2 2
0 0 0 0 1 1 1 1 1 1 2 2 1 2 1 1 1 1 1 0 0 1 1 1 1 1 1 1 1 1 1 0 0 0 0 0 0 0 0 0 1 1 2
0 0 0 1 1 1 1 1 1 1 2 2 1 1 1 1 1 1 1 1 0 0 1 1 0 0 1 1 1 1 1 1 0 0 0 0 0 0 1 1 1 1 2
0 0 0 0 0 1 0 1 1 1 1 2 2 1 1 1 1 1 1 1 1 1 1 1 0 0 0 1 2 2 1 1 1 1 0 0 0 0 1 1 1 1 2
1 1 1 0 0 0 1 1 1 1 1 2 2 2 1 1 1 1 1 1 1 1 1 1 1 1 0 1 1 1 1 1 1 1 1 1 1 0 1 1 1 1 2
1 1 1 1 1 1 1 1 1 1 1 1 2 2 2 1 1 1 1 1 1 1 1 1 1 1 1 1 1 1 1 1 1 1 1 1 1 1 1 1 1 1 2
1 1 1 1 1 1 1 1 1 1 1 1 1 2 2 1 1 1 1 1 1 1 1 1 1 1 1 1 2 2 2 2 2 2 2 2 2 1 1 1 2 2 2
Wind_Direction
159 166 174 176 168 169 173 171 167 165 168 167 166 162 168 176 176 172 179 175 181 190 193 191 194 188 192 229 258 259 258 252 265 285 292 304 304 302 313 316 311 304 299
164 163 171 166 162 170 173 172 166 167 172 170 167 166 173 179 173 176 186 181 180 188 199 198 212 211 205 226 242 252 256 253 253 277 291 301 299 291 302 307 314 311 305
148 159 159 167 175 177 173 170 170 170 172 171 171 173 177 183 180 183 180 183 185 191 200 200 218 210 230 237 245 260 267 274 263 266 283 294 297 299 308 308 310 310 310
150 165 169 177 176 173 173 168 169 169 170 170 173 176 178 186 184 179 175 178 179 185 200 212 225 220 227 233 249 258 270 274 273 271 278 287 294 300 305 307 311 307 310
169 174 179 174 165 161 166 164 161 164 169 168 166 168 169 178 183 179 180 184 179 188 204 207 222 239 249 248 252 252 260 265 273 273 278 289 295 304 299 301 303 310 307
181 190 175 167 163 164 163 152 148 153 158 155 163 165 168 191 197 193 186 181 186 193 214 233 231 232 259 274 271 271 265 262 265 266 278 277 282 288 295 295 302 313 304
198 191 174 165 164 167 161 148 153 156 153 157 168 170 176 196 200 197 198 192 196 202 211 230 255 251 263 261 286 288 286 285 275 262 264 271 277 281 283 286 288 293 290
225 209 182 160 154 151 150 151 157 158 161 166 172 175 176 191 191 189 192 176 195 207 216 225 236 253 250 255 275 292 287 285 283 277 260 268 273 278 271 276 282 296 295
236 229 191 161 155 157 158 161 160 158 157 163 168 170 169 181 186 177 175 180 197 218 225 222 230 249 260 270 283 285 294 294 300 300 299 300 302 300 304 308 306 313 311
266 244 189 166 165 168 164 157 153 149 149 146 149 168 173 176 182 171 170 169 196 230 246 255 256 263 266 276 272 269 281 283 294 311 309 309 315 315 327 332 294 297 307
358 341 163 152 152 152 146 145 142 138 132 129 134 160 183 178 172 177 190 172 175 210 260 273 276 286 292 287 292 271 277 295 295 295 302 317 342 353 360 357 350 310 300
62 70 108 124 136 141 143 141 138 137 137 141 146 154 196 185 166 191 209 203 186 188 242 263 276 293 303 300 306 293 292 318 334 327 329 331 341 349 359 0 356 344 320
67 86 95 99 116 137 142 143 139 141 146 159 164 169 177 187 183 205 222 223 278 271 245 276 295 301 309 307 311 315 328 21 32 343 327 330 340 345 354 357 353 349 337
65 102 108 104 96 100 134 151 160 167 166 175 181 177 176 187 192 159 163 286 347 355 351 306 318 319 330 337 339 348 14 89 78 310 337 347 360 5 353 346 348 348 349
29 114 118 111 116 109 103 160 180 192 187 184 188 186 178 197 233 246 260 234 231 255 326 318 317 326 343 350 10 27 32 34 34 29 15 354 353 358 347 343 336 340 345
28 93 126 112 111 121 130 71 33 76 209 197 194 190 198 212 219 229 251 264 262 237 299 246 262 289 309 339 13 23 27 30 29 19 353 1 352 348 344 347 351 356 355
258 146 122 118 133 147 149 144 110 51 70 100 148 184 183 185 191 194 202 210 231 257 283 240 225 234 286 348 14 36 16 10 12 11 17 20 357 344 352 357 2 4 3
55 110 116 145 148 153 168 171 160 145 121 65 112 167 166 165 160 159 159 120 150 106 174 217 227 221 280 354 10 34 20 19 7 360 29 38 3 344 356 2 6 5 355
28 95 101 116 135 150 134 132 136 138 142 128 100 132 141 146 149 160 151 153 187 186 172 206 248 195 173 222 100 84 63 4 349 356 33 25 17 24 24 12 6 2 359
3 334 346 149 151 153 167 169 168 170 175 176 178 178 164 162 170 178 176 163 169 180 189 202 208 203 197 182 151 124 104 26 7 41 40 21 10 35 36 6 3 358 355
265 268 328 98 171 189 192 198 197 198 206 204 202 204 181 168 167 155 157 169 201 225 223 222 214 211 194 172 160 158 173 213 216 97 67 47 37 39 31 21 9 5 2
275 233 206 189 194 202 191 183 182 190 188 177 150 137 132 126 145 150 164 184 200 188 188 192 213 208 171 171 177 186 195 212 219 159 106 66 58 52 52 52 31 8 5
178 140 93 84 118 177 163 150 165 185 186 168 151 139 135 147 159 165 168 166 157 147 164 165 162 186 163 184 189 188 203 223 232 185 151 129 60 47 37 38 22 9 10
170 161 154 150 151 170 173 167 185 191 173 155 151 153 152 163 175 176 163 146 139 140 154 163 169 190 198 172 179 198 210 220 196 189 187 158 120 73 53 47 39 17 18
159 167 172 176 189 193 186 186 181 173 157 149 155 150 143 149 160 164 158 144 138 130 131 146 158 164 158 152 155 156 127 107 99 108 126 131 119 108 89 66 54 40 37
170 181 180 181 186 195 197 186 168 156 152 149 147 141 139 149 163 164 156 144 138 138 138 144 142 129 126 133 127 119 111 112 117 120 123 125 124 120 107 87 66 55 47
Height
1443 1446 1448 1450 1452 1455 1457 1459 1461 1463 1465 1467 1469 1470 1472 1474 1475 1476 1477 1478 1479 1480 1481 1481 1481 1482 1482 1483 1483 1483 1483 1482 1479 1477 1477 1476 1474 1472 1470 1468 1466 1463 1461
1440 1443 1445 1446 1449 1451 1453 1455 1457 1459 1461 1463 1465 1466 1468 1470 1471 1472 1473 1474 1475 1475 1476 1477 1477 1477 1477 1479 1479 1478 1478 1477 1476 1473 1472 1471 1469 1467 1465 1463 1460 1459 1456
1438 1440 1441 1443 1445 1447 1449 1451 1453 1455 1457 1459 1461 1462 1463 1465 1467 1468 1469 1470 1470 1471 1472 1473 1473 1473 1473 1474 1474 1474 1473 1473 1472 1470 1467 1466 1464 1463 1460 1458 1456 1453 1452
1435 1437 1438 1439 1441 1443 1446 1448 1450 1451 1453 1455 1457 1458 1459 1461 1463 1464 1464 1465 1466 1467 1468 1469 1469 1468 1469 1469 1469 1469 1468 1468 1467 1466 1463 1462 1460 1458 1456 1453 1450 1448 1446
1432 1433 1434 1436 1438 1440 1442 1444 1446 1447 1449 1451 1453 1454 1456 1457 1459 1459 1460 1461 1462 1463 1463 1464 1465 1465 1465 1465 1465 1464 1464 1463 1462 1461 1459 1457 1455 1453 1451 1449 1446 1443 1441
1429 1430 1431 1433 1435 1436 1438 1439 1441 1443 1445 1447 1449 1451 1452 1453 1455 1456 1457 1457 1458 1458 1459 1459 1460 1460 1461 1460 1460 1460 1460 1459 1457 1456 1454 1452 1450 1449 1446 1445 1442 1439 1435
1426 1427 1428 1430 1431 1433 1434 1435 1437 1440 1442 1444 1446 1447 1449 1450 1451 1452 1453 1454 1454 1455 1455 1455 1455 1456 1456 1456 1455 1455 1455 1454 1454 1453 1450 1448 1446 1444 1442 1440 1438 1436 1433
1423 1424 1425 1426 1428 1429 1431 1432 1435 1437 1439 1440 1442 1444 1445 1447 1448 1449 1449 1450 1450 1451 1451 1451 1451 1451 1451 1451 1451 1450 1450 1449 1448 1447 1445 1444 1442 1440 1438 1436 1433 1431 1429
1420 1421 1422 1423 1424 1426 1428 1430 1432 1434 1436 1437 1439 1441 1442 1443 1444 1445 1446 1446 1446 1447 1447 1447 1448 1448 1447 1447 1447 1446 1445 1444 1443 1442 1440 1439 1438 1436 1434 1432 1429 1427 1424
1417 1418 1419 1421 1422 1424 1425 1427 1429 1431 1432 1434 1436 1437 1439 1440 1441 1441 1442 1443 1442 1442 1443 1443 1444 1444 1443 1443 1443 1442 1440 1439 1438 1436 1435 1434 1433 1432 1430 1429 1426 1425 1423
1415 1416 1417 1418 1420 1422 1423 1425 1426 1428 1429 1431 1432 1434 1435 1436 1437 1438 1439 1439 1439 1439 1439 1439 1440 1440 1439 1440 1439 1438 1437 1436 1434 1433 1431 1430 1429 1428 1427 1426 1425 1424 1422
1413 1414 1415 1416 1418 1419 1421 1422 1424 1425 1426 1428 1429 1430 1432 1433 1434 1435 1436 1436 1436 1436 1436 1436 1436 1436 1436 1436 1435 1434 1433 1433 1431 1430 1429 1427 1427 1426 1425 1424 1423 1422 1421
1412 1412 1413 1414 1415 1417 1418 1420 1421 1423 1424 1425 1426 1427 1429 1430 1430 1431 1432 1433 1433 1433 1433 1433 1433 1433 1432 1432 1431 1431 1430 1429 1428 1427 1426 1425 1425 1424 1423 1422 1420 1419 1418
1410 1410 1411 1412 1413 1415 1416 1418 1419 1420 1422 1423 1424 1424 1426 1427 1427 1428 1428 1429 1429 1430 1430 1430 1430 1429 1429 1429 1428 1428 1427 1426 1427 1426 1425 1424 1423 1422 1421 1419 1418 1416 1415
1408 1408 1409 1410 1411 1413 1414 1416 1417 1418 1419 1421 1422 1422 1423 1423 1425 1425 1425 1426 1426 1427 1427 1426 1426 1426 1425 1425 1425 1425 1424 1424 1424 1423 1422 1422 1421 1420 1419 1418 1417 1415 1414
1406 1407 1407 1408 1409 1411 1412 1413 1415 1416 1417 1418 1419 1420 1421 1422 1422 1423 1423 1423 1424 1424 1424 1423 1423 1423 1423 1423 1423 1422 1422 1422 1422 1421 1421 1420 1419 1418 1417 1417 1416 1414 1413
1405 1405 1406 1407 1408 1409 1410 1411 1411 1413 1415 1416 1417 1417 1418 1419 1420 1420 1420 1421 1421 1422 1422 1421 1421 1422 1422 1422 1422 1421 1421 1421 1420 1420 1419 1419 1418 1417 1416 1415 1415 1413 1412
1403 1404 1404 1405 1406 1407 1408 1409 1410 1410 1411 1413 1414 1415 1416 1417 1417 1418 1418 1419 1419 1419 1419 1420 1420 1420 1420 1421 1420 1420 1420 1419 1419 1419 1418 1418 1417 1417 1416 1415 1414 1414 1413
1402 1402 1403 1404 1405 1406 1406 1407 1408 1409 1410 1411 1412 1413 1414 1414 1415 1416 1416 1416 1416 1417 1418 1418 1419 1419 1420 1420 1419 1419 1419 1419 1418 1418 1418 1417 1417 1416 1415 1415 1414 1414 1413
1401 1402 1402 1403 1403 1404 1405 1405 1406 1407 1408 1409 1410 1411 1412 1412 1412 1413 1414 1415 1415 1415 1416 1416 1417 1418 1418 1419 1418 1418 1418 1418 1418 1417 1417 1417 1416 1416 1415 1415 1414 1414 1413
1400 1401 1401 1402 1402 1403 1403 1404 1404 1405 1406 1407 1408 1409 1410 1410 1410 1411 1412 1413 1413 1414 1415 1415 1416 1416 1417 1417 1417 1417 1417 1417 1417 1417 1416 1416 1416 1415 1415 1415 1414 1414 1413
1399 1399 1400 1400 1401 1401 1402 1402 1403 1404 1404 1405 1406 1407 1408 1409 1409 1409 1410 1411 1412 1413 1414 1414 1415 1415 1416 1416 1416 1416 1416 1416 1416 1416 1415 1415 1415 1415 1415 1414 1414 1413 1413
1398 1398 1398 1399 1399 1400 1400 1401 1401 1402 1403 1403 1404 1405 1406 1407 1407 1408 1409 1410 1411 1412 1412 1413 1414 1414 1415 1415 1415 1415 1415 1415 1415 1415 1415 1415 1414 1415 1414 1414 1414 1413 1413
1397 1397 1397 1397 1398 1398 1399 1399 1400 1401 1401 1402 1403 1403 1404 1405 1406 1407 1407 1408 1409 1410 1411 1412 1412 1413 1413 1413 1414 1414 1414 1415 1415 1414 1414 1414 1414 1414 1414 1414 1414 1414 1413
1395 1396 1396 1396 1397 1397 1398 1398 1399 1399 1400 1401 1401 1402 1403 1404 1405 1405 1406 1407 1408 1409 1410 1410 1411 1411 1412 1412 1413 1413 1414 1414 1414 1414 1414 1414 1414 1414 1414 1414 1414 1414 1414
1394 1395 1395 1395 1396 1396 1397 1397 1397 1398 1399 1399 1400 1401 1402 1403 1403 1404 1405 1406 1407 1408 1408 1409 1410 1410 1411 1411 1412 1413 1413 1413 1413 1414 1414 1414 1414 1414 1414 1414 1414 1414 1414